Time,TemperatureF,DewpointF,PressureIn,WindDirection,WindDirectionDegrees,WindSpeedMPH,WindSpeedGustMPH,Humidity,HourlyPrecipIn,Conditions,Clouds,dailyrainin,SoftwareType,DateUTC
2013-02-18 00:02:00,-999.0,-99.9,29.65,WNW,289,19.0,34.0,-999,-99.99,,,-99.99,,2013-02-18 05:02:00,
2013-02-18 00:11:00,21.0,-99.9,29.65,WNW,290,17.0,32.0,-999,-99.99,,,-99.99,,2013-02-18 05:11:00,
2013-02-18 00:21:00,-999.0,-99.9,29.66,WNW,294,17.0,32.0,-999,-99.99,,,-99.99,,2013-02-18 05:21:00,
2013-02-18 00:32:00,-999.0,-99.9,29.66,WNW,292,19.0,29.0,-999,-99.99,,,-99.99,,2013-02-18 05:32:00,
2013-02-18 00:42:00,21.0,-99.9,29.66,WNW,300,16.0,30.0,-999,-99.99,,,-99.99,,2013-02-18 05:42:00,
2013-02-18 00:52:00,-999.0,-99.9,29.67,WNW,298,22.0,31.0,-999,-99.99,,,-99.99,,2013-02-18 05:52:00,
2013-02-18 01:02:00,-999.0,-99.9,29.67,WNW,292,22.0,34.0,-999,-99.99,,,-99.99,,2013-02-18 06:02:00,
2013-02-18 01:11:00,20.0,-99.9,29.67,WNW,303,19.0,36.0,-999,-99.99,,,-99.99,,2013-02-18 06:11:00,
2013-02-18 01:22:00,-999.0,-99.9,29.68,WNW,293,21.0,33.0,-999,-99.99,,,-99.99,,2013-02-18 06:22:00,
2013-02-18 01:32:00,-999.0,-99.9,29.69,WNW,292,20.0,30.0,-999,-99.99,,,-99.99,,2013-02-18 06:32:00,
2013-02-18 01:42:00,20.0,-99.9,29.69,WNW,290,19.0,36.0,-999,-99.99,,,-99.99,,2013-02-18 06:42:00,
2013-02-18 01:52:00,-999.0,-99.9,29.69,WNW,294,16.0,30.0,-999,-99.99,,,-99.99,,2013-02-18 06:52:00,
2013-02-18 02:02:00,-999.0,-99.9,29.70,WNW,301,17.0,37.0,-999,-99.99,,,-99.99,,2013-02-18 07:02:00,
2013-02-18 02:11:00,20.0,-99.9,29.70,WNW,298,20.0,31.0,-999,-99.99,,,-99.99,,2013-02-18 07:11:00,
2013-02-18 02:22:00,-999.0,-99.9,29.70,NW,304,20.0,34.0,-999,-99.99,,,-99.99,,2013-02-18 07:22:00,
2013-02-18 02:32:00,-999.0,-99.9,29.71,WNW,290,21.0,31.0,-999,-99.99,,,-99.99,,2013-02-18 07:32:00,
2013-02-18 02:42:00,20.0,-99.9,29.71,WNW,303,17.0,28.0,-999,-99.99,,,-99.99,,2013-02-18 07:42:00,
2013-02-18 02:52:00,-999.0,-99.9,29.71,WNW,301,19.0,36.0,-999,-99.99,,,-99.99,,2013-02-18 07:52:00,
2013-02-18 03:02:00,-999.0,-99.9,29.72,WNW,295,19.0,33.0,-999,-99.99,,,-99.99,,2013-02-18 08:02:00,
2013-02-18 03:11:00,19.0,-99.9,29.72,WNW,296,21.0,29.0,-999,-99.99,,,-99.99,,2013-02-18 08:11:00,
2013-02-18 03:22:00,-999.0,-99.9,29.72,WNW,300,16.0,34.0,-999,-99.99,,,-99.99,,2013-02-18 08:22:00,
2013-02-18 03:33:00,-999.0,-99.9,29.73,WNW,301,16.0,29.0,-999,-99.99,,,-99.99,,2013-02-18 08:33:00,
2013-02-18 03:42:00,20.0,-99.9,29.73,WNW,302,17.0,30.0,-999,-99.99,,,-99.99,,2013-02-18 08:42:00,
2013-02-18 03:52:00,-999.0,-99.9,29.74,NW,305,17.0,34.0,-999,-99.99,,,-99.99,,2013-02-18 08:52:00,
2013-02-18 04:03:00,-999.0,-99.9,29.74,WNW,299,15.0,27.0,-999,-99.99,,,-99.99,,2013-02-18 09:03:00,
2013-02-18 04:11:00,20.0,-99.9,29.75,NW,306,23.0,32.0,-999,-99.99,,,-99.99,,2013-02-18 09:11:00,
2013-02-18 04:22:00,-999.0,-99.9,29.75,WNW,301,21.0,36.0,-999,-99.99,,,-99.99,,2013-02-18 09:22:00,
2013-02-18 04:32:00,-999.0,-99.9,29.76,NW,307,21.0,33.0,-999,-99.99,,,-99.99,,2013-02-18 09:32:00,
2013-02-18 04:42:00,-999.0,-99.9,29.77,NW,307,19.0,34.0,-999,-99.99,,,-99.99,,2013-02-18 09:42:00,
2013-02-18 04:52:00,20.0,-99.9,29.77,WNW,300,21.0,34.0,-999,-99.99,,,-99.99,,2013-02-18 09:52:00,
2013-02-18 05:01:00,-999.0,-99.9,29.78,WNW,301,19.0,32.0,-999,-99.99,,,-99.99,,2013-02-18 10:01:00,
2013-02-18 05:12:00,20.0,-99.9,29.78,WNW,296,16.0,31.0,-999,-99.99,,,-99.99,,2013-02-18 10:12:00,
2013-02-18 05:22:00,-999.0,-99.9,29.79,WNW,300,19.0,30.0,-999,-99.99,,,-99.99,,2013-02-18 10:22:00,
2013-02-18 05:32:00,-999.0,-99.9,29.80,WNW,298,20.0,38.0,-999,-99.99,,,-99.99,,2013-02-18 10:32:00,
2013-02-18 05:43:00,20.0,-99.9,29.80,WNW,299,18.0,32.0,-999,-99.99,,,-99.99,,2013-02-18 10:43:00,
2013-02-18 05:53:00,-999.0,-99.9,29.80,WNW,297,19.0,26.0,-999,-99.99,,,-99.99,,2013-02-18 10:53:00,
2013-02-18 06:02:00,-999.0,-99.9,29.81,NW,304,16.0,30.0,-999,-99.99,,,-99.99,,2013-02-18 11:02:00,
2013-02-18 06:12:00,-999.0,-99.9,29.81,WNW,302,22.0,34.0,-999,-99.99,,,-99.99,,2013-02-18 11:12:00,
2013-02-18 06:22:00,-999.0,-99.9,29.82,WNW,297,19.0,30.0,-999,-99.99,,,-99.99,,2013-02-18 11:22:00,
2013-02-18 06:33:00,-999.0,-99.9,29.83,WNW,291,17.0,31.0,-999,-99.99,,,-99.99,,2013-02-18 11:33:00,
2013-02-18 06:43:00,20.0,-99.9,29.83,WNW,300,19.0,30.0,-999,-99.99,,,-99.99,,2013-02-18 11:43:00,
2013-02-18 06:54:00,-999.0,-99.9,29.84,NW,305,20.0,31.0,-999,-99.99,,,-99.99,,2013-02-18 11:54:00,
2013-02-18 07:02:00,-999.0,-99.9,29.84,WNW,303,19.0,35.0,-999,-99.99,,,-99.99,,2013-02-18 12:02:00,
2013-02-18 07:12:00,20.0,-99.9,29.85,WNW,302,21.0,34.0,-999,-99.99,,,-99.99,,2013-02-18 12:12:00,
2013-02-18 07:22:00,-999.0,-99.9,29.86,WNW,303,21.0,36.0,-999,-99.99,,,-99.99,,2013-02-18 12:22:00,
2013-02-18 07:32:00,-999.0,-99.9,29.87,WNW,298,18.0,36.0,-999,-99.99,,,-99.99,,2013-02-18 12:32:00,
2013-02-18 07:42:00,20.0,-99.9,29.87,WNW,297,19.0,33.0,-999,-99.99,,,-99.99,,2013-02-18 12:42:00,
2013-02-18 07:54:00,-999.0,-99.9,29.88,WNW,299,21.0,35.0,-999,-99.99,,,-99.99,,2013-02-18 12:54:00,
2013-02-18 08:03:00,-999.0,-99.9,29.89,WNW,300,20.0,31.0,-999,-99.99,,,-99.99,,2013-02-18 13:03:00,
2013-02-18 08:12:00,21.0,-99.9,29.89,WNW,293,18.0,36.0,-999,-99.99,,,-99.99,,2013-02-18 13:12:00,
2013-02-18 08:23:00,-999.0,-99.9,29.90,WNW,296,22.0,36.0,-999,-99.99,,,-99.99,,2013-02-18 13:23:00,
2013-02-18 08:33:00,-999.0,-99.9,29.91,WNW,300,19.0,33.0,-999,-99.99,,,-99.99,,2013-02-18 13:33:00,
2013-02-18 08:43:00,22.0,-99.9,29.91,NW,307,20.0,32.0,-999,-99.99,,,-99.99,,2013-02-18 13:43:00,
2013-02-18 08:53:00,-999.0,-99.9,29.92,NW,304,18.0,30.0,-999,-99.99,,,-99.99,,2013-02-18 13:53:00,
2013-02-18 09:02:00,-999.0,-99.9,29.93,WNW,292,18.0,34.0,-999,-99.99,,,-99.99,,2013-02-18 14:02:00,
2013-02-18 09:12:00,22.0,-99.9,29.93,WNW,296,21.0,31.0,-999,-99.99,,,-99.99,,2013-02-18 14:12:00,
2013-02-18 09:22:00,-999.0,-99.9,29.95,NW,312,19.0,30.0,-999,-99.99,,,-99.99,,2013-02-18 14:22:00,
2013-02-18 09:34:00,-999.0,-99.9,29.95,WNW,300,19.0,28.0,-999,-99.99,,,-99.99,,2013-02-18 14:34:00,
2013-02-18 09:42:00,-999.0,-99.9,29.95,NW,305,17.0,37.0,-999,-99.99,,,-99.99,,2013-02-18 14:42:00,
2013-02-18 09:54:00,-999.0,-99.9,29.95,NW,310,21.0,35.0,-999,-99.99,,,-99.99,,2013-02-18 14:54:00,
2013-02-18 10:02:00,-999.0,-99.9,29.96,WNW,300,19.0,32.0,-999,-99.99,,,-99.99,,2013-02-18 15:02:00,
2013-02-18 10:12:00,24.0,-99.9,29.96,NW,306,16.0,32.0,-999,-99.99,,,-99.99,,2013-02-18 15:12:00,
2013-02-18 10:22:00,-999.0,-99.9,29.97,NW,304,18.0,29.0,-999,-99.99,,,-99.99,,2013-02-18 15:22:00,
2013-02-18 10:32:00,-999.0,-99.9,29.97,WNW,298,19.0,31.0,-999,-99.99,,,-99.99,,2013-02-18 15:32:00,
2013-02-18 10:42:00,24.0,-99.9,29.97,WNW,297,21.0,27.0,-999,-99.99,,,-99.99,,2013-02-18 15:42:00,
2013-02-18 10:53:00,-999.0,-99.9,29.98,WNW,300,17.0,27.0,-999,-99.99,,,-99.99,,2013-02-18 15:53:00,
2013-02-18 11:03:00,-999.0,-99.9,29.98,WNW,290,18.0,28.0,-999,-99.99,,,-99.99,,2013-02-18 16:03:00,
2013-02-18 11:12:00,-999.0,-99.9,29.98,WNW,296,17.0,30.0,-999,-99.99,,,-99.99,,2013-02-18 16:12:00,
2013-02-18 11:23:00,-999.0,-99.9,29.98,WNW,293,16.0,28.0,-999,-99.99,,,-99.99,,2013-02-18 16:23:00,
2013-02-18 11:33:00,-999.0,-99.9,29.98,WNW,296,11.0,28.0,-999,-99.99,,,-99.99,,2013-02-18 16:33:00,
2013-02-18 11:43:00,26.0,-99.9,29.98,WNW,291,17.0,26.0,-999,-99.99,,,-99.99,,2013-02-18 16:43:00,
2013-02-18 11:53:00,-999.0,-99.9,29.98,WNW,295,16.0,26.0,-999,-99.99,,,-99.99,,2013-02-18 16:53:00,
2013-02-18 12:04:00,-999.0,-99.9,29.98,WNW,291,17.0,23.0,-999,-99.99,,,-99.99,,2013-02-18 17:04:00,
2013-02-18 12:13:00,26.0,-99.9,29.98,WNW,291,21.0,26.0,-999,-99.99,,,-99.99,,2013-02-18 17:13:00,
2013-02-18 12:23:00,-999.0,-99.9,29.98,WNW,288,14.0,29.0,-999,-99.99,,,-99.99,,2013-02-18 17:23:00,
2013-02-18 12:33:00,-999.0,-99.9,29.98,WNW,291,15.0,28.0,-999,-99.99,,,-99.99,,2013-02-18 17:33:00,
2013-02-18 12:43:00,27.0,-99.9,29.99,WNW,291,16.0,26.0,-999,-99.99,,,-99.99,,2013-02-18 17:43:00,
2013-02-18 12:53:00,-999.0,-99.9,29.99,WNW,287,16.0,26.0,-999,-99.99,,,-99.99,,2013-02-18 17:53:00,
2013-02-18 13:03:00,-999.0,-99.9,29.99,WNW,286,16.0,23.0,-999,-99.99,,,-99.99,,2013-02-18 18:03:00,
2013-02-18 13:23:00,-999.0,-99.9,29.99,WNW,290,17.0,25.0,-999,-99.99,,,-99.99,,2013-02-18 18:23:00,
2013-02-18 13:33:00,-999.0,-99.9,30.00,WNW,285,11.0,23.0,-999,-99.99,,,-99.99,,2013-02-18 18:33:00,
2013-02-18 13:43:00,29.0,-99.9,30.00,WNW,293,10.0,23.0,-999,-99.99,,,-99.99,,2013-02-18 18:43:00,
2013-02-18 13:53:00,-999.0,-99.9,29.99,West,281,10.0,26.0,-999,-99.99,,,-99.99,,2013-02-18 18:53:00,
2013-02-18 14:03:00,-999.0,-99.9,29.99,WNW,294,12.0,24.0,-999,-99.99,,,-99.99,,2013-02-18 19:03:00,
2013-02-18 14:13:00,30.0,-99.9,29.99,WNW,283,14.0,23.0,-999,-99.99,,,-99.99,,2013-02-18 19:13:00,
2013-02-18 14:23:00,-999.0,-99.9,29.99,West,281,13.0,25.0,-999,-99.99,,,-99.99,,2013-02-18 19:23:00,
2013-02-18 14:34:00,-999.0,-99.9,29.99,West,281,15.0,26.0,-999,-99.99,,,-99.99,,2013-02-18 19:34:00,
2013-02-18 14:43:00,-999.0,-99.9,30.00,West,275,13.0,27.0,-999,-99.99,,,-99.99,,2013-02-18 19:43:00,
2013-02-18 14:53:00,31.0,-99.9,30.00,WNW,285,18.0,24.0,-999,-99.99,,,-99.99,,2013-02-18 19:53:00,
2013-02-18 15:03:00,-999.0,-99.9,30.01,WNW,290,16.0,30.0,-999,-99.99,,,-99.99,,2013-02-18 20:03:00,
2013-02-18 15:13:00,31.0,-99.9,30.01,WNW,294,17.0,28.0,-999,-99.99,,,-99.99,,2013-02-18 20:13:00,
2013-02-18 15:24:00,-999.0,-99.9,30.01,WNW,295,16.0,26.0,-999,-99.99,,,-99.99,,2013-02-18 20:24:00,
2013-02-18 15:34:00,-999.0,-99.9,30.01,WNW,285,17.0,29.0,-999,-99.99,,,-99.99,,2013-02-18 20:34:00,
2013-02-18 15:43:00,31.0,-99.9,30.02,WNW,288,15.0,26.0,-999,-99.99,,,-99.99,,2013-02-18 20:43:00,
2013-02-18 15:53:00,-999.0,-99.9,30.02,West,278,14.0,23.0,-999,-99.99,,,-99.99,,2013-02-18 20:53:00,
2013-02-18 16:03:00,-999.0,-99.9,30.03,West,277,13.0,27.0,-999,-99.99,,,-99.99,,2013-02-18 21:03:00,
2013-02-18 16:12:00,-999.0,-99.9,30.03,WNW,296,16.0,28.0,-999,-99.99,,,-99.99,,2013-02-18 21:12:00,
2013-02-18 16:23:00,31.0,-99.9,30.03,WNW,291,14.0,23.0,-999,-99.99,,,-99.99,,2013-02-18 21:23:00,
2013-02-18 16:33:00,-999.0,-99.9,30.03,WNW,283,17.0,27.0,-999,-99.99,,,-99.99,,2013-02-18 21:33:00,
2013-02-18 16:43:00,30.0,-99.9,30.04,WNW,288,18.0,32.0,-999,-99.99,,,-99.99,,2013-02-18 21:43:00,
2013-02-18 16:53:00,-999.0,-99.9,30.05,WNW,298,16.0,23.0,-999,-99.99,,,-99.99,,2013-02-18 21:53:00,
2013-02-18 17:03:00,-999.0,-99.9,30.05,WNW,291,15.0,26.0,-999,-99.99,,,-99.99,,2013-02-18 22:03:00,
2013-02-18 17:13:00,30.0,-99.9,30.06,WNW,284,15.0,27.0,-999,-99.99,,,-99.99,,2013-02-18 22:13:00,
2013-02-18 17:23:00,-999.0,-99.9,30.07,West,276,13.0,17.0,-999,-99.99,,,-99.99,,2013-02-18 22:23:00,
2013-02-18 17:33:00,-999.0,-99.9,30.08,West,278,8.0,20.0,-999,-99.99,,,-99.99,,2013-02-18 22:33:00,
2013-02-18 17:44:00,30.0,-99.9,30.08,West,279,7.0,14.0,-999,-99.99,,,-99.99,,2013-02-18 22:44:00,
2013-02-18 17:54:00,-999.0,-99.9,30.09,West,280,7.0,19.0,-999,-99.99,,,-99.99,,2013-02-18 22:54:00,
2013-02-18 18:03:00,-999.0,-99.9,30.09,West,278,11.0,24.0,-999,-99.99,,,-99.99,,2013-02-18 23:03:00,
2013-02-18 18:12:00,30.0,-99.9,30.09,West,279,11.0,19.0,-999,-99.99,,,-99.99,,2013-02-18 23:12:00,
2013-02-18 18:23:00,-999.0,-99.9,30.09,West,272,9.0,24.0,-999,-99.99,,,-99.99,,2013-02-18 23:23:00,
2013-02-18 18:34:00,-999.0,-99.9,30.09,West,277,12.0,19.0,-999,-99.99,,,-99.99,,2013-02-18 23:34:00,
2013-02-18 18:43:00,30.0,-99.9,30.10,West,275,16.0,22.0,-999,-99.99,,,-99.99,,2013-02-18 23:43:00,
2013-02-18 18:54:00,-999.0,-99.9,30.11,West,278,13.0,20.0,-999,-99.99,,,-99.99,,2013-02-18 23:54:00,
2013-02-18 19:03:00,-999.0,-99.9,30.11,West,277,10.0,19.0,-999,-99.99,,,-99.99,,2013-02-19 00:03:00,
2013-02-18 19:13:00,30.0,-99.9,30.11,West,277,9.0,19.0,-999,-99.99,,,-99.99,,2013-02-19 00:13:00,
2013-02-18 19:23:00,-999.0,-99.9,30.11,West,278,13.0,23.0,-999,-99.99,,,-99.99,,2013-02-19 00:23:00,
2013-02-18 19:36:00,-999.0,-99.9,30.12,West,281,9.0,19.0,-999,-99.99,,,-99.99,,2013-02-19 00:36:00,
2013-02-18 19:44:00,30.0,-99.9,30.12,West,279,10.0,17.0,-999,-99.99,,,-99.99,,2013-02-19 00:44:00,
2013-02-18 19:55:00,-999.0,-99.9,30.12,WNW,282,10.0,18.0,-999,-99.99,,,-99.99,,2013-02-19 00:55:00,
2013-02-18 20:03:00,-999.0,-99.9,30.12,WNW,283,11.0,19.0,-999,-99.99,,,-99.99,,2013-02-19 01:03:00,
2013-02-18 20:15:00,30.0,-99.9,30.12,WNW,285,11.0,19.0,-999,-99.99,,,-99.99,,2013-02-19 01:15:00,
2013-02-18 20:25:00,-999.0,-99.9,30.12,West,277,11.0,21.0,-999,-99.99,,,-99.99,,2013-02-19 01:25:00,
2013-02-18 20:35:00,-999.0,-99.9,30.13,WNW,282,13.0,19.0,-999,-99.99,,,-99.99,,2013-02-19 01:35:00,
2013-02-18 20:45:00,-999.0,-99.9,30.13,West,281,12.0,24.0,-999,-99.99,,,-99.99,,2013-02-19 01:45:00,
2013-02-18 21:04:00,-999.0,-99.9,30.14,West,280,12.0,24.0,-999,-99.99,,,-99.99,,2013-02-19 02:04:00,
2013-02-18 21:14:00,31.0,-99.9,30.14,West,279,11.0,22.0,-999,-99.99,,,-99.99,,2013-02-19 02:14:00,
2013-02-18 21:23:00,-999.0,-99.9,30.14,WNW,286,13.0,21.0,-999,-99.99,,,-99.99,,2013-02-19 02:23:00,
2013-02-18 21:35:00,-999.0,-99.9,30.14,WNW,282,11.0,26.0,-999,-99.99,,,-99.99,,2013-02-19 02:35:00,
2013-02-18 21:44:00,31.0,-99.9,30.14,West,277,12.0,19.0,-999,-99.99,,,-99.99,,2013-02-19 02:44:00,
2013-02-18 21:56:00,-999.0,-99.9,30.14,WNW,286,11.0,22.0,-999,-99.99,,,-99.99,,2013-02-19 02:56:00,
2013-02-18 22:08:00,-999.0,-99.9,30.15,WNW,287,8.0,20.0,-999,-99.99,,,-99.99,,2013-02-19 03:08:00,
2013-02-18 22:15:00,30.0,-99.9,30.15,WNW,289,11.0,19.0,-999,-99.99,,,-99.99,,2013-02-19 03:15:00,
2013-02-18 22:25:00,-999.0,-99.9,30.15,WNW,285,11.0,19.0,-999,-99.99,,,-99.99,,2013-02-19 03:25:00,
2013-02-18 22:35:00,-999.0,-99.9,30.15,WNW,289,13.0,18.0,-999,-99.99,,,-99.99,,2013-02-19 03:35:00,
2013-02-18 22:46:00,30.0,-99.9,30.14,WNW,289,11.0,22.0,-999,-99.99,,,-99.99,,2013-02-19 03:46:00,
2013-02-18 22:55:00,-999.0,-99.9,30.15,West,280,9.0,17.0,-999,-99.99,,,-99.99,,2013-02-19 03:55:00,
2013-02-18 23:15:00,31.0,-99.9,30.15,West,279,11.0,17.0,-999,-99.99,,,-99.99,,2013-02-19 04:15:00,
2013-02-18 23:24:00,-999.0,-99.9,30.16,West,279,10.0,16.0,-999,-99.99,,,-99.99,,2013-02-19 04:24:00,
2013-02-18 23:34:00,-999.0,-99.9,30.16,WNW,289,10.0,18.0,-999,-99.99,,,-99.99,,2013-02-19 04:34:00,
2013-02-18 23:45:00,31.0,-99.9,30.17,West,277,9.0,16.0,-999,-99.99,,,-99.99,,2013-02-19 04:45:00,
2013-02-18 23:56:00,-999.0,-99.9,30.17,West,281,11.0,18.0,-999,-99.99,,,-99.99,,2013-02-19 04:56:00,